When you browse on this site, cookies collect data to enhance your experience and personalize the content and advertising you see.
Visit our Privacy Policy to learn more. By continuing to use the site, you agree to this use of cookies and data.

Hourly Weather Nam Dinh

Today, 13 August, Thursday

Time Temperature Precipitation Wind Pressure Humidity
00:00 +30°C° 0.7 mm 4 mps 754 mmHg 86%
01:00 +29°C° 0 mm 4 mps 754 mmHg 87%
02:00 +29°C° 0.4 mm 4 mps 753 mmHg 87%
03:00 +29°C° 0.4 mm 4 mps 753 mmHg 87%
04:00 +29°C° 0.4 mm 4 mps 753 mmHg 87%
05:00 +30°C° 0.8 mm 4 mps 753 mmHg 86%
06:00 +30°C° 0.8 mm 4 mps 753 mmHg 86%
07:00 +30°C° 0 mm 3 mps 754 mmHg 86%
08:00 +31°C° 0.7 mm 2 mps 754 mmHg 84%
09:00 +31°C° 0.7 mm 2 mps 754 mmHg 83%
10:00 +32°C° 0.7 mm 1 mps 754 mmHg 81%
11:00 +32°C° 0.1 mm 2 mps 753 mmHg 80%
12:00 +32°C° 0.1 mm 2 mps 753 mmHg 79%
13:00 +32°C° 0.1 mm 2 mps 752 mmHg 78%
14:00 +33°C° 0.1 mm 4 mps 752 mmHg 76%
15:00 +33°C° 0.1 mm 5 mps 752 mmHg 74%
16:00 +34°C° 0.1 mm 6 mps 751 mmHg 72%
17:00 +33°C° 0 mm 5 mps 752 mmHg 75%
18:00 +32°C° 0 mm 5 mps 752 mmHg 79%
19:00 +30°C° 0 mm 5 mps 753 mmHg 82%
20:00 +30°C° 0.4 mm 5 mps 753 mmHg 83%
21:00 +30°C° 0.4 mm 5 mps 753 mmHg 84%
22:00 +29°C° 0.4 mm 5 mps 754 mmHg 85%
23:00 +29°C° 1.7 mm 5 mps 753 mmHg 86%

Tomorrow, 14 August, Friday

Time Temperature Precipitation Wind Pressure Humidity
00:00 +29°C° 1.7 mm 5 mps 753 mmHg 87%
01:00 +29°C° 1.7 mm 5 mps 753 mmHg 88%
02:00 +29°C° 1.7 mm 5 mps 753 mmHg 89%
03:00 +28°C° 1.7 mm 4 mps 752 mmHg 90%
04:00 +28°C° 1.7 mm 3 mps 752 mmHg 91%
05:00 +28°C° 0.3 mm 3 mps 753 mmHg 90%
06:00 +29°C° 0.3 mm 3 mps 753 mmHg 90%
07:00 +29°C° 0.3 mm 3 mps 753 mmHg 89%
08:00 +30°C° 0.2 mm 3 mps 754 mmHg 86%
09:00 +30°C° 0.2 mm 3 mps 754 mmHg 83%
10:00 +31°C° 0.2 mm 3 mps 754 mmHg 80%
11:00 +31°C° 0.9 mm 3 mps 754 mmHg 79%
12:00 +32°C° 0.9 mm 4 mps 754 mmHg 78%
13:00 +32°C° 0.9 mm 4 mps 753 mmHg 77%
14:00 +32°C° 0.1 mm 5 mps 753 mmHg 75%
15:00 +33°C° 0.1 mm 5 mps 752 mmHg 74%
16:00 +33°C° 0.1 mm 6 mps 752 mmHg 72%
17:00 +32°C° 0 mm 5 mps 752 mmHg 75%
18:00 +30°C° 0 mm 5 mps 752 mmHg 79%
19:00 +29°C° 0 mm 4 mps 753 mmHg 82%
20:00 +29°C° 0 mm 4 mps 753 mmHg 83%
21:00 +29°C° 0 mm 4 mps 753 mmHg 84%
22:00 +29°C° 0 mm 3 mps 754 mmHg 85%
23:00 +29°C° 0 mm 3 mps 753 mmHg 85%

Day after tomorrow, 15 August, Saturday

Time Temperature Precipitation Wind Pressure Humidity
00:00 +29°C° 0 mm 3 mps 753 mmHg 85%
01:00 +29°C° 0 mm 3 mps 753 mmHg 85%
02:00 +29°C° 0.1 mm 3 mps 752 mmHg 84%
03:00 +29°C° 0.1 mm 3 mps 752 mmHg 83%
04:00 +29°C° 0.1 mm 4 mps 752 mmHg 83%
05:00 +29°C° 0.1 mm 4 mps 752 mmHg 82%
06:00 +29°C° 0.1 mm 4 mps 752 mmHg 82%
07:00 +29°C° 0.1 mm 4 mps 752 mmHg 82%
08:00 +30°C° 0 mm 4 mps 753 mmHg 79%
09:00 +32°C° 0 mm 5 mps 753 mmHg 76%
10:00 +32°C° 0 mm 5 mps 753 mmHg 73%
11:00 +32°C° 0 mm 5 mps 752 mmHg 74%
12:00 +32°C° 0 mm 4 mps 752 mmHg 75%
13:00 +32°C° 0 mm 4 mps 751 mmHg 75%
14:00 +32°C° 0.1 mm 5 mps 751 mmHg 74%
15:00 +33°C° 0.1 mm 5 mps 751 mmHg 72%
16:00 +33°C° 0.1 mm 5 mps 750 mmHg 70%
17:00 +32°C° 0.1 mm 5 mps 751 mmHg 74%
18:00 +30°C° 0.1 mm 5 mps 751 mmHg 77%
19:00 +28°C° 0.1 mm 5 mps 751 mmHg 81%
20:00 +28°C° 0 mm 5 mps 752 mmHg 81%
21:00 +28°C° 0 mm 4 mps 752 mmHg 81%
22:00 +28°C° 0 mm 4 mps 753 mmHg 81%
23:00 +28°C° 0 mm 4 mps 753 mmHg 82%

16 August, Sunday

Time Temperature Precipitation Wind Pressure Humidity
00:00 +28°C° 0 mm 4 mps 752 mmHg 82%
01:00 +28°C° 0 mm 4 mps 752 mmHg 82%
02:00 +27°C° 0.1 mm 4 mps 752 mmHg 84%
03:00 +27°C° 0.1 mm 4 mps 751 mmHg 85%
04:00 +27°C° 0.1 mm 4 mps 751 mmHg 87%
05:00 +27°C° 1.3 mm 4 mps 751 mmHg 89%
06:00 +26°C° 1.3 mm 4 mps 752 mmHg 91%
07:00 +26°C° 1.3 mm 5 mps 752 mmHg 92%
08:00 +26°C° 1.2 mm 5 mps 752 mmHg 92%
09:00 +26°C° 1.2 mm 5 mps 753 mmHg 91%
10:00 +27°C° 1.2 mm 5 mps 753 mmHg 91%
11:00 +27°C° 0.8 mm 6 mps 752 mmHg 89%
12:00 +27°C° 0.8 mm 6 mps 752 mmHg 87%
13:00 +28°C° 0.8 mm 6 mps 752 mmHg 85%
14:00 +28°C° 0.2 mm 6 mps 751 mmHg 85%
15:00 +28°C° 0.2 mm 6 mps 751 mmHg 84%
16:00 +28°C° 0.2 mm 6 mps 750 mmHg 84%
17:00 +28°C° 0.2 mm 5 mps 750 mmHg 85%
18:00 +28°C° 0.2 mm 4 mps 751 mmHg 86%
19:00 +27°C° 0.2 mm 4 mps 751 mmHg 87%
20:00 +27°C° 0.1 mm 4 mps 752 mmHg 87%
21:00 +28°C° 0.1 mm 3 mps 752 mmHg 87%
22:00 +28°C° 0.1 mm 3 mps 753 mmHg 87%
23:00 +27°C° 0.3 mm 3 mps 752 mmHg 87%

17 August, Monday

Time Temperature Precipitation Wind Pressure Humidity
00:00 +27°C° 0.3 mm 3 mps 752 mmHg 88%
01:00 +27°C° 0.3 mm 3 mps 752 mmHg 89%
02:00 +27°C° 0.5 mm 3 mps 751 mmHg 90%
03:00 +27°C° 0.5 mm 3 mps 751 mmHg 91%
04:00 +26°C° 0.5 mm 3 mps 751 mmHg 92%
05:00 +26°C° 0.6 mm 3 mps 751 mmHg 92%
06:00 +27°C° 0.6 mm 3 mps 752 mmHg 92%
07:00 +27°C° 0.6 mm 3 mps 752 mmHg 92%
08:00 +27°C° 0.4 mm 3 mps 752 mmHg 89%
09:00 +28°C° 0.4 mm 3 mps 753 mmHg 85%
10:00 +29°C° 0.4 mm 4 mps 753 mmHg 82%
11:00 +30°C° 0.2 mm 4 mps 753 mmHg 77%
12:00 +33°C° 0.2 mm 4 mps 752 mmHg 72%
13:00 +34°C° 0.2 mm 4 mps 752 mmHg 66%
14:00 +33°C° 1.3 mm 4 mps 752 mmHg 70%
15:00 +32°C° 1.3 mm 4 mps 751 mmHg 74%
16:00 +32°C° 1.3 mm 4 mps 751 mmHg 78%
17:00 +30°C° 0 mm 4 mps 751 mmHg 80%
18:00 +29°C° 0 mm 4 mps 752 mmHg 82%
19:00 +29°C° 0 mm 3 mps 752 mmHg 85%
20:00 +29°C° 0.1 mm 3 mps 753 mmHg 85%
21:00 +29°C° 0.1 mm 3 mps 753 mmHg 85%
22:00 +29°C° 0.1 mm 3 mps 754 mmHg 85%
23:00 +29°C° 2.2 mm 3 mps 753 mmHg 86%

18 August, Tuesday

Time Temperature Precipitation Wind Pressure Humidity
00:00 +28°C° 2.2 mm 3 mps 753 mmHg 87%
01:00 +28°C° 2.2 mm 4 mps 753 mmHg 88%
02:00 +28°C° 1.9 mm 3 mps 753 mmHg 88%
03:00 +28°C° 1.9 mm 3 mps 752 mmHg 89%
04:00 +28°C° 1.9 mm 3 mps 752 mmHg 89%
05:00 +28°C° 0.3 mm 3 mps 753 mmHg 89%
06:00 +28°C° 0.3 mm 2 mps 753 mmHg 89%
07:00 +29°C° 0.3 mm 2 mps 754 mmHg 88%
08:00 +30°C° 0.9 mm 2 mps 754 mmHg 84%
09:00 +31°C° 0.9 mm 2 mps 754 mmHg 79%
10:00 +32°C° 0.9 mm 2 mps 754 mmHg 75%
11:00 +33°C° 0.4 mm 3 mps 754 mmHg 72%
12:00 +34°C° 0.4 mm 3 mps 753 mmHg 70%
13:00 +34°C° 0.4 mm 3 mps 753 mmHg 68%
14:00 +34°C° 0.2 mm 4 mps 752 mmHg 70%
15:00 +33°C° 0.2 mm 4 mps 752 mmHg 71%
16:00 +33°C° 0.2 mm 5 mps 752 mmHg 72%
17:00 +32°C° 1.1 mm 4 mps 752 mmHg 78%
18:00 +30°C° 1.1 mm 3 mps 753 mmHg 83%
19:00 +29°C° 1.1 mm 3 mps 753 mmHg 88%
20:00 +29°C° 1.7 mm 3 mps 754 mmHg 89%
21:00 +28°C° 1.7 mm 3 mps 754 mmHg 90%
22:00 +28°C° 1.7 mm 3 mps 755 mmHg 90%
23:00 +28°C° 2.8 mm 3 mps 754 mmHg 92%
Show more